Miscellaneous Local Product
Issued by NWS Hastings, NE

Home | Current Version | Previous Version | Graphics & Text | Print | Product List | Glossary On
Versions: 1 2 3 4 5 6 7 8 9 10 11 12 13 14 15 16 17 18 19 20 21 22 23 24 25 26 27 28 29 30 31 32 33 34 35 36 37 38 39 40 41 42 43 44 45 46 47 48 49 50
000
AXUS43 KGID 220702
MISGRI

GID CWA HOURLY WEATHER ROUNDUP
NATIONAL WEATHER SERVICE HASTINGS NE
200 AM CDT TUE AUG 22 2017

NOTE: "FAIR" INDICATES FEW OR NO CLOUDS BELOW 12,000 FEET WITH NO
SIGNIFICANT WEATHER AND/OR OBSTRUCTIONS TO VISIBILITY.

...SOUTH CENTRAL NEBRASKA...

CITY           SKY/WX    TMP DP  RH WIND       PRES   REMARKS
GRAND ISLAND   CLEAR     64  64 100 N5        30.08R
HASTINGS       MOCLDY    67  64  90 N8        30.08R
KEARNEY        CLEAR     65  63  93 N8        30.10R
ORD            PTCLDY    62  59  90 NW5       30.09R
YORK           CLOUDY    66  66 100 N5        30.05R
AURORA         PTCLDY    64  64 100 N6        30.06S
LEXINGTON      CLEAR     65  62  91 N3        30.12R
HOLDREGE       PTCLDY    65  63  93 N7        30.09S
HEBRON         MOCLDY    68  65  90 NE6       30.03R

...NEBRASKA PANHANDLE...

CITY           SKY/WX    TMP DP  RH WIND       PRES   REMARKS
CHADRON        CLEAR     51  45  79 W3        30.23R
ALLIANCE       CLEAR     48  44  86 N3        30.24R
SCOTTSBLUFF    CLEAR     56  49  77 NE5       30.25S
SIDNEY         CLEAR     60  49  66 NE7       30.27R

...WESTERN AND NORTH CENTRAL NEBRASKA...

CITY           SKY/WX    TMP DP  RH WIND       PRES   REMARKS
VALENTINE      CLEAR     61  47  59 N6        30.18R
AINSWORTH      CLEAR     57  52  85 N6        30.17S
ONEILL         CLEAR     62  60  94 N6        30.12R
BROKEN BOW     CLEAR     63  61  93 N5        30.13R
IMPERIAL       CLEAR     63  60  90 N9        30.19R
NORTH PLATTE   CLEAR     60  60 100 NW5       30.16R
MCCOOK         PTCLDY    67  65  93 NE7       30.12R

...EASTERN NEBRASKA...

CITY           SKY/WX    TMP DP  RH WIND       PRES   REMARKS
NORFOLK        CLEAR     62  62 100 CALM      30.05R
SO SIOUX CITY  CLEAR     62  62 100 W5        30.02R FOG
TEKAMAH        CLEAR     62  60  93 W3        30.01R
COLUMBUS       CLEAR     62  62 100 NW3       30.06R
ALBION         CLEAR     64  62  96 N7        30.08R
OMAHA EPPLEY   CLOUDY    66  63  90 CALM      30.01S
OFFUTT AFB     MOCLDY    65  64  95 NW3       30.00F
MILLARD        CLOUDY    67  65  94 CALM      30.02S
LINCOLN        MOCLDY    66  65  96 N6        30.04S
NEBRASKA CITY  DRIZZLE   65  65 100 S5        29.99F
BEATRICE       CLOUDY    67  66  96 NE6       30.01R
FALLS CITY     LGT RAIN  65  64  97 E8        29.97F

...NORTHERN KANSAS...

CITY           SKY/WX    TMP DP  RH WIND       PRES   REMARKS
GOODLAND       MOCLDY    68  64  87 N12       30.17R
HILL CITY      MOCLDY    72  66  81 NE9       30.07R
NORTON         SUNNY     68  61  77 N8        30.08
PHILLIPSBURG   CLEAR     72  64  78 N12G17    30.05R
SMITH CENTER   PTCLDY    66  64  94 N16G24    30.02R
HAYS           PTCLDY    73  68  84 N10       30.01R
RUSSELL        PTCLDY    72  66  81 W7        29.98R
CONCORDIA      CLEAR     73  72  96 N12       29.97R
SALINA         CLOUDY    76  70  82 S7        29.93S
TOPEKA         TSTM      72  71  97 SW6       29.94R FOG



USA.gov is the U.S. government's official web portal to all federal, state and local government web resources and services.